Regional Weather Roundup
Issued by NWS

Home | Current Version | Previous Version | Text Only | Print | Product List | Glossary On
Versions: 1 2 3 4 5 6 7 8 9 10 11 12 13 14 15 16 17 18 19 20 21 22 23 24 25 26 27 28 29 30 31 32 33 34 35 36 37 38 39 40 41 42 43 44 45 46 47 48 49 50
902
ASUS43 KBIS 260102
RWRND

NORTH DAKOTA REGIONAL WEATHER ROUNDUP
NATIONAL WEATHER SERVICE BISMARCK ND
700 PM CST SAT FEB 25 2017

NOTE: "FAIR" INDICATES FEW OR NO CLOUDS BELOW 12,000 FEET WITH NO
SIGNIFICANT WEATHER AND/OR OBSTRUCTIONS TO VISIBILITY.


NDZ001>003-009>011-017-260200-
NORTHWEST NORTH DAKOTA

CITY           SKY/WX    TMP DP  RH WIND       PRES   REMARKS
WILLISTON      FAIR      17  13  84 N10       29.70S WCI   5
MINOT          LGT SNOW  18  14  84 N10       29.69F FOG     WCI   6
MINOT AFB      LGT SNOW  16  12  86 N9        29.69F FOG     WCI   4
$$

NDZ018>021-031>035-040>046-260200-
SOUTHWEST NORTH DAKOTA

CITY           SKY/WX    TMP DP  RH WIND       PRES   REMARKS
BISMARCK       MOCLDY    19  17  92 SE6       29.70F WCI  11
DICKINSON      MOCLDY    20  17  88 SW7       29.62F WCI  11
GARRISON         N/A     23  20  88 S5        29.64F WCI  17
HETTINGER ARPT MOCLDY    25  22  88 W7        29.68F WCI  17
$$

NDZ004>008-012>016-024-026-027-054-260200-
NORTHEAST NORTH DAKOTA

CITY           SKY/WX    TMP DP  RH WIND       PRES   REMARKS
GRAND FORKS    PTCLDY    22  14  71 N7        29.75S WCI  13
GRND FRKS AFB  MOCLDY    22  16  77 N7        29.75S WCI  14
DEVILS LAKE    CLOUDY    19  13  77 NW9       29.73F WCI   8
$$

NDZ022-023-025-028>030-036>039-047>053-260200-
SOUTHEAST NORTH DAKOTA

CITY           SKY/WX    TMP DP  RH WIND       PRES   REMARKS
FARGO          CLOUDY    28  22  78 NW6       29.75F
JAMESTOWN      FAIR      23  17  78 W7        29.72F WCI  15
$$





USA.gov is the U.S. government's official web portal to all federal, state and local government web resources and services.